Tracking 18980 objects as of 19-Feb-2018
HD Live streaming from Space Station
objects crossing your sky now

ARIANE 42L R/B

Track ARIANE 42L R/B now!
10-day predictions


NORAD ID: 25586
Int'l Code: 1998-075B
Perigee: 215.2 km
Apogee: 18,179.7 km
Inclination: 7.5 °
Period: 322.2 minutes
Semi major axis: 15568 km
RCS: 21.3079 m2 (large)
Launch date: December 22, 1998
Source: France (FR)
Launch site: FRENCH GUIANA (FRGUI)

Note: This is a ROCKET BODY
aabbcc
Your satellite tracking list
Your tracking list is empty




NASA's NSSDC Master Catalog

Two Line Element Set (TLE):
1 25586U 98075B   18049.44725820  .00035777  00000-0  12650-2 0  9994
2 25586   7.4937  91.5996 5769497  57.4739 345.7365  4.46924871241015
Source of the keplerian elements: AFSPC